FW9262 Weather Reports


time (UTC)temp
F
wind
direction
speed
knots
gust
knots
rain 1hr
in
rain 24hr
in
rain mn
in
humidity
%
barometer
mb
20260508060158 61 313 0.0 0.0 0.00 0.00 0.00 90 1018.3
20260508055654 61 338 0.0 0.0 0.00 0.00 0.00 90 1018.3
20260508055151 61 0 0.0 0.9 0.00 0.00 0.00 90 1018.3
20260508054647 61 309 0.0 0.0 0.00 0.00 0.00 90 1018.3
20260508054145 61 336 0.0 0.0 0.00 0.00 0.00 90 1018.7
20260508053642 61 329 0.0 0.0 0.00 0.00 0.00 90 1018.7
20260508053139 61 339 0.0 0.0 0.00 0.00 0.00 90 1018.7
20260508052636 61 326 0.0 0.9 0.00 0.00 0.00 90 1018.3
20260508052133 61 338 0.0 0.0 0.00 0.00 0.00 90 1018.3
20260508051629 60 343 0.0 0.9 0.00 0.00 0.00 90 1018.7
20260508051125 60 309 0.0 0.9 0.00 0.00 0.00 91 1018.7
20260508050621 60 319 0.0 0.9 0.00 0.00 0.00 90 1018.7
20260508050119 60 334 0.0 1.7 0.00 0.00 0.00 90 1018.7
20260508045615 60 341 0.0 0.9 0.00 0.00 0.00 90 1018.7
20260508045113 60 342 0.0 0.9 0.00 0.00 0.00 90 1018.3
20260508044610 60 328 0.0 0.9 0.00 0.00 0.00 90 1018.3
20260508044106 60 310 0.0 0.9 0.00 0.00 0.00 90 1018.3
20260508043602 60 313 0.9 0.9 0.00 0.00 0.00 90 1018.0
20260508043100 60 320 0.0 0.0 0.00 0.00 0.00 91 1018.0
20260508042557 60 328 0.0 0.0 0.00 0.00 0.00 91 1018.0
20260508042054 60 335 0.0 1.7 0.00 0.00 0.00 91 1018.3
20260508041550 60 299 0.9 0.9 0.00 0.00 0.00 91 1017.6
20260508041047 60 276 1.7 1.7 0.00 0.00 0.00 91 1017.6
20260508040543 60 319 0.9 0.9 0.00 0.00 0.00 91 1017.6
20260508040042 60 348 0.0 1.7 0.00 0.00 0.00 91 1017.6
20260508035538 60 309 0.0 1.7 0.00 0.00 0.00 91 1017.6
20260508035035 60 339 0.0 1.7 0.00 0.00 0.00 91 1017.6
20260508034532 60 231 0.9 0.9 0.00 0.00 0.00 91 1017.6
20260508034029 60 270 1.7 1.7 0.00 0.00 0.00 91 1017.6
20260508033527 60 324 1.7 1.7 0.00 0.00 0.00 91 1017.3
20260508033025 60 267 0.9 2.6 0.00 0.00 0.00 91 1017.3
20260508032521 60 317 1.7 3.5 0.00 0.00 0.00 91 1017.3
20260508032019 60 12 0.9 3.5 0.00 0.00 0.00 90 1017.3
20260508031516 60 306 0.9 2.6 0.00 0.00 0.00 90 1017.0
20260508031011 60 289 1.7 2.6 0.00 0.00 0.00 90 1017.3
20260508030508 60 255 2.6 5.2 0.00 0.00 0.00 90 1017.0
20260508030007 60 248 2.6 2.6 0.00 0.00 0.00 89 1017.0
20260508025502 60 295 1.7 1.7 0.00 0.00 0.00 89 1017.0
20260508024959 60 246 0.9 1.7 0.00 0.00 0.00 89 1017.0
20260508024455 61 253 2.6 5.2 0.00 0.00 0.00 88 1017.0
20260508023952 61 203 1.7 2.6 0.00 0.00 0.00 88 1016.6
20260508023449 61 238 1.7 5.2 0.00 0.00 0.00 87 1017.0
20260508022946 61 233 1.7 3.5 0.00 0.00 0.00 86 1017.0
20260508022442 61 261 1.7 2.6 0.00 0.00 0.00 86 1016.6
20260508021938 62 334 0.9 3.5 0.00 0.00 0.00 85 1016.6
20260508021435 62 286 0.9 3.5 0.00 0.00 0.00 84 1016.6
20260508020931 62 198 1.7 2.6 0.00 0.00 0.00 83 1016.6
20260508020429 62 282 2.6 3.5 0.00 0.00 0.00 82 1016.6
20260508015926 62 299 1.7 3.5 0.00 0.00 0.00 82 1016.3
20260508015424 62 281 3.5 6.1 0.00 0.00 0.00 83 1016.6
20260508014920 62 288 1.7 5.2 0.00 0.00 0.00 83 1016.3
20260508014417 63 302 1.7 6.1 0.00 0.00 0.00 82 1016.3
20260508013912 63 279 1.7 5.2 0.00 0.00 0.00 82 1016.6
20260508013408 63 273 1.7 5.2 0.00 0.00 0.00 82 1016.3
20260508012906 63 349 2.6 6.1 0.00 0.00 0.00 82 1016.6
20260508012403 63 312 1.7 5.2 0.00 0.00 0.00 82 1016.3
20260508011901 63 354 1.7 1.7 0.00 0.00 0.00 81 1016.3
20260508011359 63 250 3.5 5.2 0.00 0.00 0.00 82 1016.6
20260508010855 64 224 2.6 3.5 0.00 0.00 0.00 81 1016.6
20260508010353 64 243 1.7 7.0 0.00 0.00 0.00 80 1016.6
20260508005850 64 260 1.7 3.5 0.00 0.00 0.00 79 1016.3
20260508005346 64 327 0.9 1.7 0.00 0.00 0.00 78 1016.6
20260508004843 64 227 3.5 5.2 0.00 0.00 0.00 78 1016.3
20260508004339 65 229 2.6 8.7 0.00 0.00 0.00 78 1016.3
20260508003835 65 255 5.2 6.1 0.00 0.00 0.00 78 1016.3
20260508003333 65 330 1.7 3.5 0.00 0.00 0.00 78 1016.3
20260508002830 65 261 3.5 6.1 0.00 0.00 0.00 76 1016.3
20260508002326 66 244 3.5 3.5 0.00 0.00 0.00 75 1016.6
20260508001823 66 326 0.9 3.5 0.00 0.00 0.00 75 1016.6
20260508001319 67 260 2.6 5.2 0.00 0.00 0.00 73 1016.6
20260508000815 67 108 1.7 6.1 0.00 0.00 0.00 73 1016.3
20260508000312 67 308 2.6 5.2 0.00 0.00 0.00 74 1016.3
20260507235808 67 270 0.9 2.6 0.00 0.00 0.00 74 1016.6
20260507235307 66 293 2.6 6.1 0.00 0.00 0.00 74 1016.6
20260507234803 66 253 3.5 6.1 0.00 0.00 0.00 75 1016.6
20260507234259 66 252 2.6 6.1 0.00 0.00 0.00 76 1016.6
20260507233755 67 274 3.5 6.1 0.00 0.00 0.00 75 1017.0
20260507233253 66 254 3.5 6.1 0.00 0.00 0.00 76 1016.6
20260507232751 66 298 0.9 6.1 0.00 0.00 0.00 76 1016.6
20260507232247 66 253 0.9 2.6 0.00 0.00 0.00 78 1016.6
20260507231744 66 314 1.7 7.0 0.00 0.00 0.00 77 1016.6
20260507231241 66 121 1.7 7.0 0.00 0.00 0.00 77 1016.3
20260507230737 67 35 1.7 2.6 0.00 0.00 0.00 77 1016.6
20260507230235 67 329 0.9 6.1 0.00 0.00 0.00 78 1017.0
20260507225734 67 262 3.5 5.2 0.00 0.00 0.00 76 1017.0
20260507225231 68 246 4.3 6.1 0.00 0.00 0.00 75 1016.6
20260507224727 69 207 1.7 3.5 0.00 0.00 0.00 73 1016.6
20260507224224 68 206 3.5 5.2 0.00 0.00 0.00 74 1017.0
20260507223720 68 147 3.5 6.1 0.00 0.00 0.00 74 1017.0
20260507223217 68 276 2.6 7.8 0.00 0.00 0.00 74 1017.0
20260507222713 68 282 1.7 6.1 0.00 0.00 0.00 74 1016.6
20260507222210 68 273 4.3 7.0 0.00 0.00 0.00 75 1017.0
20260507221707 69 228 4.3 7.0 0.00 0.00 0.00 72 1017.0
20260507221203 69 294 2.6 6.1 0.00 0.00 0.00 72 1017.3
20260507220700 68 189 3.5 6.1 0.00 0.00 0.00 73 1017.3
20260507220158 69 261 2.6 7.0 0.00 0.00 0.00 72 1017.0
20260507215654 69 204 5.2 6.1 0.00 0.00 0.00 71 1017.0
20260507215151 68 321 1.7 7.8 0.00 0.00 0.00 73 1017.3
20260507214648 69 269 3.5 6.1 0.00 0.00 0.00 71 1017.3
20260507214145 68 287 2.6 6.1 0.00 0.00 0.00 73 1017.3
20260507213641 69 212 3.5 7.0 0.00 0.00 0.00 73 1017.3
20260507213138 69 273 2.6 3.5 0.00 0.00 0.00 73 1017.6
20260507212634 68 267 3.5 6.1 0.00 0.00 0.00 72 1017.3
20260507212131 69 282 4.3 6.1 0.00 0.00 0.00 72 1017.3
20260507211628 68 287 1.7 5.2 0.00 0.00 0.00 72 1017.6
20260507211123 68 226 2.6 6.1 0.00 0.00 0.00 72 1017.6
20260507210622 68 279 3.5 7.0 0.00 0.00 0.00 73 1017.6
20260507210118 68 237 4.3 7.0 0.00 0.00 0.00 73 1017.3
20260507205615 68 215 2.6 5.2 0.00 0.00 0.00 72 1017.6
20260507205111 70 204 0.9 3.5 0.00 0.00 0.00 70 1018.0
20260507204607 70 264 3.5 7.8 0.00 0.00 0.00 70 1017.6
20260507204105 69 319 1.7 6.1 0.00 0.00 0.00 72 1018.0
20260507203603 68 291 2.6 7.0 0.00 0.00 0.00 72 1018.0
20260507203100 68 275 3.5 7.8 0.00 0.00 0.00 72 1018.0
20260507202555 69 331 1.7 6.1 0.00 0.00 0.00 72 1018.0
20260507202052 69 239 3.5 6.1 0.00 0.00 0.00 71 1018.0
20260507201547 70 328 0.0 3.5 0.00 0.00 0.00 70 1017.6
20260507201044 70 322 1.7 3.5 0.00 0.00 0.00 69 1018.0
20260507200539 71 242 1.7 5.2 0.00 0.00 0.00 70 1018.3
20260507200036 69 260 1.7 5.2 0.00 0.00 0.00 71 1018.3
20260507195533 69 315 5.2 6.1 0.00 0.00 0.00 71 1018.0
20260507195031 69 192 4.3 7.0 0.00 0.00 0.00 71 1018.3
20260507194527 69 299 0.9 3.5 0.00 0.00 0.00 71 1018.7
20260507194023 69 293 2.6 6.1 0.00 0.00 0.00 72 1018.7
20260507193520 69 8 0.0 3.5 0.00 0.00 0.00 73 1018.3
20260507193017 68 255 3.5 6.1 0.00 0.00 0.00 73 1018.3
20260507192513 69 272 0.9 5.2 0.00 0.00 0.00 71 1018.7
20260507192010 69 303 1.7 5.2 0.00 0.00 0.00 72 1018.7
20260507191506 69 241 1.7 5.2 0.00 0.00 0.00 73 1018.7
20260507191003 69 290 2.6 6.1 0.00 0.00 0.00 72 1018.7
20260507190500 68 179 1.7 5.2 0.00 0.00 0.00 72 1018.7
20260507185959 69 235 4.3 5.2 0.00 0.00 0.00 70 1018.7
20260507185456 69 216 1.7 6.1 0.00 0.00 0.00 72 1018.7
20260507184953 69 41 0.9 2.6 0.00 0.00 0.00 71 1018.7
20260507184451 68 266 1.7 3.5 0.00 0.00 0.00 72 1019.0
20260507183949 69 272 2.6 3.5 0.00 0.00 0.00 70 1019.0
20260507183444 68 9 0.9 3.5 0.00 0.00 0.00 72 1018.7
20260507182942 68 188 3.5 7.0 0.00 0.00 0.00 71 1018.7
20260507182438 69 311 0.9 5.2 0.00 0.00 0.00 72 1018.7
20260507181934 69 158 1.7 5.2 0.00 0.00 0.00 71 1019.0
20260507181430 69 322 2.6 3.5 0.00 0.00 0.00 71 1019.0
20260507180927 68 300 1.7 2.6 0.00 0.00 0.00 73 1019.0
20260507180424 68 226 2.6 3.5 0.00 0.00 0.00 73 1018.7
20260507175920 68 295 1.7 3.5 0.00 0.00 0.00 73 1019.0
20260507175417 68 254 0.9 3.5 0.00 0.00 0.00 73 1019.0
20260507174915 67 296 0.9 6.1 0.00 0.00 0.00 74 1019.0
20260507174412 67 178 0.9 3.5 0.00 0.00 0.00 74 1019.0
20260507173909 67 255 0.9 3.5 0.00 0.00 0.00 75 1018.7
20260507173406 67 300 2.6 3.5 0.00 0.00 0.00 74 1019.0
20260507172902 68 296 1.7 5.2 0.00 0.00 0.00 73 1019.0
20260507172359 67 254 3.5 3.5 0.00 0.00 0.00 74 1018.7
20260507171855 67 301 1.7 2.6 0.00 0.00 0.00 75 1019.3
20260507171352 67 312 1.7 2.6 0.00 0.00 0.00 75 1019.0
20260507170849 68 300 2.6 3.5 0.00 0.00 0.00 73 1019.0
20260507170345 67 298 2.6 3.5 0.00 0.00 0.00 75 1019.0
20260507165841 68 305 1.7 3.5 0.00 0.00 0.00 74 1019.0
20260507165337 68 328 1.7 2.6 0.00 0.00 0.00 73 1019.0
20260507164834 68 327 0.9 3.5 0.00 0.00 0.00 74 1019.0
20260507164331 68 315 1.7 1.7 0.00 0.00 0.00 72 1019.0
20260507163828 68 308 0.9 1.7 0.00 0.00 0.00 73 1019.0
20260507163325 68 308 1.7 1.7 0.00 0.00 0.00 72 1019.3
20260507162821 67 319 1.7 1.7 0.00 0.00 0.00 74 1019.0
20260507162317 66 326 0.9 2.6 0.00 0.00 0.00 76 1019.0
20260507161815 67 345 0.9 2.6 0.00 0.00 0.00 76 1019.0
20260507161311 65 353 0.0 1.7 0.00 0.00 0.00 80 1019.3
20260507160808 65 344 0.9 1.7 0.00 0.00 0.00 79 1019.0
20260507160303 65 331 0.9 2.6 0.00 0.00 0.00 78 1019.0
20260507155759 65 346 0.9 2.6 0.00 0.00 0.00 79 1019.3
20260507155255 65 349 0.9 2.6 0.00 0.00 0.00 80 1019.3
20260507154752 65 343 0.9 1.7 0.00 0.00 0.00 80 1019.3
20260507154250 65 359 0.9 0.9 0.00 0.00 0.00 80 1019.3
20260507153746 65 354 0.9 2.6 0.00 0.00 0.00 80 1019.3
20260507153243 64 1 1.7 2.6 0.00 0.00 0.00 80 1019.3
20260507152739 65 11 0.9 1.7 0.00 0.00 0.00 80 1019.0
20260507152236 64 12 1.7 1.7 0.00 0.00 0.00 82 1019.3
20260507151732 64 350 1.7 1.7 0.00 0.00 0.00 81 1019.0
20260507151228 64 357 1.7 2.6 0.00 0.00 0.00 81 1019.3
20260507150725 64 11 0.9 1.7 0.00 0.00 0.00 82 1019.0
20260507150222 63 6 0.0 0.9 0.00 0.00 0.00 82 1019.3
20260507145718 64 8 0.0 0.9 0.00 0.00 0.00 83 1019.3
20260507145215 63 8 0.9 0.9 0.00 0.00 0.00 82 1019.3
20260507144712 63 11 0.0 0.9 0.00 0.00 0.00 82 1019.0
20260507144210 63 11 0.9 1.7 0.00 0.00 0.00 82 1019.3
20260507143706 64 10 0.0 0.9 0.00 0.00 0.00 82 1019.3
20260507143203 63 10 0.0 0.0 0.00 0.00 0.00 82 1019.0
20260507142659 63 11 0.0 0.0 0.00 0.00 0.00 85 1018.7
20260507142156 62 11 0.0 0.0 0.00 0.00 0.00 87 1019.0
20260507141652 61 10 0.0 0.0 0.00 0.00 0.00 90 1019.0
20260507141149 61 10 0.0 0.0 0.00 0.00 0.00 92 1019.0
20260507140645 61 10 0.0 0.0 0.00 0.00 0.00 94 1018.7
20260507140143 62 10 0.0 0.0 0.00 0.00 0.00 95 1019.0
20260507135640 61 11 0.0 0.0 0.00 0.00 0.00 95 1019.0
20260507135137 60 10 0.0 0.0 0.00 0.00 0.00 95 1018.7
20260507134633 60 10 0.0 0.0 0.00 0.00 0.00 95 1018.7
20260507134130 60 10 0.0 0.0 0.00 0.00 0.00 95 1018.7
20260507133625 59 10 0.0 0.0 0.00 0.00 0.00 95 1018.3
20260507133123 57 10 0.0 0.0 0.00 0.00 0.00 95 1018.7
20260507132620 56 10 0.0 0.0 0.00 0.00 0.00 95 1018.7
20260507132116 56 10 0.0 0.0 0.00 0.00 0.00 95 1018.7
20260507131613 56 10 0.0 0.0 0.00 0.00 0.00 95 1018.7
20260507131111 56 9 0.0 0.0 0.00 0.00 0.00 95 1018.7
20260507130607 56 9 0.0 0.0 0.00 0.00 0.00 95 1018.7
20260507130106 56 9 0.0 0.0 0.00 0.00 0.00 95 1018.3
20260507125604 55 9 0.0 0.0 0.00 0.00 0.00 95 1018.3
20260507125101 55 9 0.0 0.0 0.00 0.00 0.00 95 1018.3
20260507124557 55 9 0.0 0.0 0.00 0.00 0.00 95 1018.3
20260507124055 55 9 0.0 0.0 0.00 0.00 0.00 95 1018.7
20260507123553 55 9 0.0 0.0 0.00 0.00 0.00 95 1018.3
20260507123050 55 9 0.0 0.0 0.00 0.00 0.00 95 1018.3
20260507122545 55 9 0.0 0.0 0.00 0.00 0.00 95 1018.7
20260507122041 55 9 0.0 0.0 0.00 0.00 0.00 95 1018.7
20260507121537 55 9 0.0 0.0 0.00 0.00 0.00 95 1018.7
20260507121033 55 9 0.0 0.0 0.00 0.00 0.00 95 1018.3
20260507120529 55 9 0.0 0.0 0.00 0.00 0.00 95 1018.3
20260507120026 55 9 0.0 0.0 0.00 0.00 0.00 95 1018.3
20260507115522 55 8 0.0 0.0 0.00 0.00 0.00 95 1018.3
20260507115018 55 9 0.0 0.0 0.00 0.00 0.00 95 1018.3
20260507114514 55 9 0.0 0.0 0.00 0.00 0.00 95 1018.7
20260507114012 55 9 0.0 0.0 0.00 0.00 0.00 95 1018.3
20260507113509 55 8 0.0 0.0 0.00 0.00 0.00 95 1018.3
20260507113006 55 7 0.0 0.0 0.00 0.00 0.00 95 1018.3
20260507112503 55 6 0.0 0.0 0.00 0.00 0.00 95 1018.3
20260507112000 55 6 0.0 0.0 0.00 0.00 0.00 95 1018.7
20260507111457 55 6 0.0 0.0 0.00 0.00 0.00 95 1018.3
20260507110953 55 7 0.0 0.0 0.00 0.00 0.00 95 1018.7
20260507110450 56 7 0.0 0.0 0.00 0.00 0.00 95 1018.7
20260507105946 56 7 0.0 0.0 0.00 0.00 0.00 95 1018.3
20260507105443 56 7 0.0 0.0 0.00 0.00 0.00 95 1018.7
20260507104940 56 7 0.0 0.0 0.00 0.00 0.00 95 1018.7
20260507104437 56 7 0.0 0.0 0.00 0.00 0.00 95 1018.7
20260507103933 56 7 0.0 0.0 0.00 0.00 0.00 95 1018.7
20260507103430 56 5 0.0 0.0 0.00 0.00 0.00 95 1018.7
20260507102926 56 7 0.0 0.0 0.00 0.00 0.00 95 1019.0
20260507102423 56 7 0.0 0.0 0.00 0.00 0.00 95 1019.0
20260507101919 56 7 0.0 0.0 0.00 0.00 0.00 95 1019.0
20260507101414 56 6 0.0 0.0 0.00 0.00 0.00 95 1018.7
20260507100911 56 7 0.0 0.0 0.00 0.00 0.00 95 1018.7
20260507100409 56 7 0.0 0.0 0.00 0.00 0.00 95 1019.0
20260507095907 56 7 0.0 0.0 0.00 0.00 0.00 95 1019.0
20260507095403 57 7 0.0 0.0 0.00 0.00 0.00 95 1018.7
20260507094901 57 8 0.0 0.0 0.00 0.00 0.00 95 1018.7
20260507094357 57 8 0.0 0.0 0.00 0.00 0.00 95 1019.0
20260507093854 57 11 0.0 0.0 0.00 0.00 0.00 95 1019.0
20260507093352 56 12 0.0 0.0 0.00 0.00 0.00 95 1019.0
20260507092850 56 13 0.0 0.0 0.00 0.00 0.00 94 1019.0
20260507092346 57 13 0.0 0.0 0.00 0.00 0.00 94 1019.0
20260507091842 57 13 0.0 0.0 0.00 0.00 0.00 94 1019.0
20260507091339 57 13 0.0 0.0 0.00 0.00 0.00 94 1019.0
20260507090835 57 13 0.0 0.0 0.00 0.00 0.00 94 1019.3
20260507090331 57 13 0.0 0.0 0.00 0.00 0.00 94 1019.3
20260507085828 57 13 0.0 0.0 0.00 0.00 0.00 94 1019.3
20260507085325 57 12 0.0 0.0 0.00 0.00 0.00 94 1019.3
20260507084823 57 12 0.0 0.0 0.00 0.00 0.00 94 1019.3
20260507084319 57 13 0.0 0.0 0.00 0.00 0.00 94 1019.3
20260507083816 57 12 0.0 0.0 0.00 0.00 0.00 94 1019.3
20260507083313 57 15 0.0 0.0 0.00 0.00 0.00 94 1019.3
20260507082809 57 14 0.0 0.0 0.00 0.00 0.00 94 1019.7
20260507082306 57 17 0.0 0.0 0.00 0.00 0.00 94 1019.7
20260507081802 57 14 0.0 0.0 0.00 0.00 0.00 94 1019.3
20260507081257 57 14 0.0 0.0 0.00 0.00 0.00 94 1019.7
20260507080755 57 12 0.0 0.0 0.00 0.00 0.00 94 1019.3
20260507080251 57 12 0.0 0.0 0.00 0.00 0.00 94 1019.7
20260507075746 57 13 0.0 0.0 0.00 0.00 0.00 94 1019.7
20260507075242 57 12 0.0 0.0 0.00 0.00 0.00 94 1019.7
20260507074739 57 12 0.0 0.0 0.00 0.00 0.00 94 1019.7
20260507074237 57 11 0.0 0.0 0.00 0.00 0.00 93 1019.7
20260507073733 57 11 0.0 0.0 0.00 0.00 0.00 93 1019.7
20260507073230 57 11 0.0 0.0 0.00 0.00 0.00 93 1020.0
20260507072728 57 10 0.0 0.0 0.00 0.00 0.00 93 1020.0
20260507072225 57 10 0.0 0.0 0.00 0.00 0.00 93 1020.0
20260507071723 58 11 0.0 0.0 0.00 0.00 0.00 93 1019.7
20260507071219 58 11 0.0 0.0 0.00 0.00 0.00 93 1019.7
20260507070716 58 9 0.0 0.0 0.00 0.00 0.00 93 1019.7
20260507070213 58 8 0.0 0.0 0.00 0.00 0.00 93 1020.0
20260507065709 58 347 0.0 0.0 0.00 0.00 0.00 93 1019.7
20260507065206 58 350 0.0 0.0 0.00 0.00 0.00 93 1020.0
20260507063804 58 271 0.0 0.9 0.00 0.00 0.00 93 1020.0
20260507063301 58 271 0.0 0.9 0.00 0.00 0.00 93 1020.0
20260507062758 58 315 0.0 0.0 0.00 0.00 0.00 93 1019.7
20260507062255 58 346 0.0 0.0 0.00 0.00 0.00 92 1020.0
20260507061753 58 341 0.0 0.0 0.00 0.00 0.00 92 1020.0
20260507061250 58 326 0.0 0.0 0.00 0.00 0.00 92 1020.0
20260507060749 59 278 0.0 0.0 0.00 0.00 0.00 92 1020.0